Flag for Ukraine Weather past 2 weeks in Kryvyi Rih, Ukraine

Now
72 °F

Clear.


Feels Like: 76 °F
Forecast: 62 / 92 °F
Wind: 8 mph from East

Location: Krivyy Rih / Dnipropetrovs'k

Current Time: Jul 29, 2014 at 10:45:08 PM

Latest Report: Jul 29, 2014 at 10:00 PM


Visibility: 10 mi

Pressure: 29.95 "Hg

Humidity: 61%

Dew point: 57 °F

Location of Kryvyi RihLocation

Historic Weather in Kryvyi Rih — Graph

°F

Kryvyi Rih temperature yesterday

Maximum temperature yesterday: 86 °F (at 2:00 PM)
Minimum temperature yesterday: 63 °F (at 5:00 AM)
Average temperature yesterday: 76 °F

Past Weeks' High & Low Weather Summary

 TemperatureHumidityPressure
High90 °F (Jul 16, 2:00 PM)100% (Jul 22, 3:00 AM)30.09 "Hg (Jul 22, 3:00 AM)
Low61 °F (Jul 22, 3:00 AM)27% (Jul 29, 2:00 PM)29.74 "Hg (Jul 21, 4:30 PM)
Average75 °F61%29.91 "Hg
* Reported Jul 14 9:00 PM — Jul 29 9:30 PM, Kryvyi Rih, Weather by CustomWeather, © 2014

Note: Actual official high and low records may vary slightly from our data, if they occured in-between our weather recording intervals... More about our weather records

Advertising

Kryvyi Rih weather history for previous 24 hours

 ConditionsComfort  
Time TempWeatherWind HumidityBarometerVisibility
9:30 PM
Jul 29
77 °FClear.6 mph47%29.95 "Hg10 mi
9:00 PM77 °FSunny.6 mph47%29.95 "Hg10 mi
8:30 PM82 °FPassing clouds.3 mph37%29.95 "HgN/A
8:00 PM82 °FSunny.3 mph37%29.92 "Hg10 mi
7:30 PM88 °FSunny.3 mph29%29.95 "Hg10 mi
7:00 PM88 °FPassing clouds.8 mph29%29.95 "HgN/A
6:30 PM88 °FSunny.8 mph27%29.95 "Hg10 mi
6:00 PM88 °FPassing clouds.13 mph27%29.95 "HgN/A
5:30 PM88 °FSunny.10 mph27%29.95 "Hg10 mi
5:00 PM88 °FPassing clouds.13 mph27%29.95 "HgN/A
4:30 PM88 °FPassing clouds.10 mph31%29.95 "HgN/A
4:00 PM88 °FPassing clouds.10 mph31%29.95 "HgN/A
3:30 PM88 °FPassing clouds.13 mph27%29.98 "HgN/A
3:00 PM88 °FPassing clouds.13 mph27%29.98 "HgN/A
2:30 PM88 °FPassing clouds.10 mph27%29.98 "HgN/A
2:00 PM88 °FPassing clouds.10 mph27%29.98 "HgN/A
1:30 PM86 °FPassing clouds.8 mph29%29.98 "HgN/A
1:00 PM86 °FPassing clouds.10 mph29%29.98 "HgN/A
12:30 PM86 °FPassing clouds.10 mph29%30.01 "HgN/A
12:00 PM86 °FPassing clouds.13 mph29%30.01 "HgN/A
11:30 AM84 °FPassing clouds.10 mph31%30.01 "HgN/A
11:00 AM84 °FPassing clouds.10 mph31%30.01 "HgN/A
10:30 AM81 °FPassing clouds.8 mph37%30.01 "HgN/A
10:00 AM81 °FPassing clouds.8 mph37%30.01 "HgN/A
9:30 AM75 °FPassing clouds.6 mph50%30.01 "HgN/A
9:00 AM75 °FPassing clouds.8 mph50%30.01 "HgN/A
8:30 AM68 °FPassing clouds.6 mph60%30.01 "HgN/A
8:00 AM68 °FPassing clouds.6 mph60%30.04 "HgN/A
7:30 AM64 °FSunny.8 mph64%30.01 "Hg10 mi
7:00 AM64 °FSunny.8 mph64%30.01 "Hg10 mi
6:30 AM61 °FSunny.6 mph68%30.01 "Hg10 mi
6:00 AM61 °FClear.1 mph68%30.01 "Hg10 mi
5:30 AM63 °FClear.3 mph68%30.01 "Hg10 mi
5:00 AM63 °FClear.3 mph68%30.01 "Hg10 mi
4:30 AM63 °FPassing clouds.3 mph68%30.01 "HgN/A
4:00 AM63 °FClear.3 mph68%30.01 "Hg10 mi
3:30 AM64 °FClear.1 mph64%30.01 "Hg10 mi
3:00 AM64 °FClear.3 mph64%30.04 "Hg10 mi
2:30 AM64 °FClear.No wind60%30.04 "Hg10 mi
2:00 AM64 °FClear.8 mph60%30.04 "Hg10 mi
1:30 AM64 °FClear.8 mph60%30.04 "Hg10 mi
1:00 AM64 °FClear.10 mph60%30.04 "Hg10 mi
12:30 AM66 °FClear.8 mph56%30.04 "Hg10 mi
11:30 PM
Jul 28
70 °FClear.6 mph57%30.04 "Hg10 mi
11:00 PM70 °FPassing clouds.6 mph57%30.04 "HgN/A
10:30 PM70 °FClear.8 mph53%30.04 "Hg10 mi
10:00 PM70 °FClear.8 mph53%30.04 "Hg10 mi
Weather by CustomWeather, © 2014

See weather overviewHow to use our weather pages